Torna al catalogo

NOAA 16 DEB

AttivoSSO
NORAD 41523·DEBRIS·🇺🇸 United States

Lanciato Sep 21, 2000 da Vandenberg Space Force Base

Loading…

Prossimi Passaggi (prossime 24 ore)

TLE

AggiornatoSource: Space-Track

Epoca: Sep 14, 2026, 04:39 UTC

1 41523U 00055MX  26257.19396866  .00002134  00000-0  88029-3 0  9995
2 41523  98.7136 338.6808 0011126 159.2108 200.9528 14.27841063537067

Traccia NOAA 16 DEB in tempo reale con AllMySat

Download on the App Store